Time,TemperatureF,DewpointF,PressureIn,WindDirection,WindDirectionDegrees,WindSpeedMPH,WindSpeedGustMPH,Humidity,HourlyPrecipIn,Conditions,Clouds,dailyrainin,SoftwareType,DateUTC
2013-07-15 00:14:00,73.2,61.2,30.11,NE,45,1.0,3.0,66,0.00,,,0.00,meteohub,2013-07-14 22:14:00,
2013-07-15 00:29:00,73.2,62.4,30.11,NE,45,1.0,3.0,69,0.00,,,0.00,meteohub,2013-07-14 22:29:00,
2013-07-15 00:45:00,73.4,64.2,30.11,NE,45,1.0,3.0,73,0.00,,,0.00,meteohub,2013-07-14 22:45:00,
2013-07-15 01:01:00,73.0,65.1,30.11,North,0,0.0,2.0,76,0.00,,,0.00,meteohub,2013-07-14 23:01:00,
2013-07-15 01:16:00,72.9,65.7,30.11,North,0,1.0,2.0,78,0.00,,,0.00,meteohub,2013-07-14 23:16:00,
2013-07-15 01:32:00,72.9,66.4,30.10,North,0,1.0,3.0,80,0.00,,,0.00,meteohub,2013-07-14 23:32:00,
2013-07-15 01:47:00,72.0,65.1,30.10,North,0,1.0,3.0,78,0.00,,,0.00,meteohub,2013-07-14 23:47:00,
2013-07-15 02:03:00,71.8,64.9,30.10,North,0,1.0,2.0,79,0.00,,,0.00,meteohub,2013-07-15 00:03:00,
2013-07-15 02:18:00,71.8,65.7,30.09,North,0,0.0,2.0,81,0.00,,,0.00,meteohub,2013-07-15 00:18:00,
2013-07-15 02:33:00,72.1,66.0,30.10,North,0,0.0,0.0,81,0.00,,,0.00,meteohub,2013-07-15 00:33:00,
2013-07-15 02:49:00,70.3,63.5,30.10,ENE,68,1.0,2.0,79,0.00,,,0.00,meteohub,2013-07-15 00:49:00,
2013-07-15 03:04:00,70.0,64.0,30.10,ENE,68,0.0,0.0,81,0.00,,,0.00,meteohub,2013-07-15 01:04:00,
2013-07-15 03:20:00,71.1,65.1,30.10,NE,45,1.0,4.0,81,0.00,,,0.00,meteohub,2013-07-15 01:20:00,
2013-07-15 03:35:00,70.5,64.8,30.10,NE,45,1.0,2.0,82,0.00,,,0.00,meteohub,2013-07-15 01:35:00,
2013-07-15 03:51:00,70.2,64.4,30.09,NE,45,1.0,2.0,82,0.00,,,0.00,meteohub,2013-07-15 01:51:00,
2013-07-15 04:06:00,70.2,63.7,30.10,NE,45,1.0,2.0,80,0.00,,,0.00,meteohub,2013-07-15 02:06:00,
2013-07-15 04:22:00,69.8,63.7,30.09,NE,45,0.0,0.0,81,0.00,,,0.00,meteohub,2013-07-15 02:22:00,
2013-07-15 04:37:00,70.3,64.6,30.09,NE,45,0.0,0.0,82,0.00,,,0.00,meteohub,2013-07-15 02:37:00,
2013-07-15 04:53:00,71.1,64.9,30.09,NE,45,0.0,2.0,81,0.00,,,0.00,meteohub,2013-07-15 02:53:00,
2013-07-15 05:08:00,70.9,65.5,30.09,NW,315,2.0,3.0,83,0.00,,,0.00,meteohub,2013-07-15 03:08:00,
2013-07-15 05:23:00,70.9,64.8,30.09,West,270,1.0,4.0,81,0.00,,,0.00,meteohub,2013-07-15 03:23:00,
2013-07-15 05:39:00,71.4,64.2,30.09,West,270,3.0,5.0,78,0.00,,,0.00,meteohub,2013-07-15 03:39:00,
2013-07-15 05:54:00,71.8,64.6,30.09,West,270,3.0,5.0,78,0.00,,,0.00,meteohub,2013-07-15 03:54:00,
2013-07-15 06:09:00,71.8,64.0,30.09,West,270,2.0,4.0,76,0.00,,,0.00,meteohub,2013-07-15 04:09:00,
2013-07-15 06:24:00,71.8,63.9,30.09,West,270,3.0,4.0,76,0.00,,,0.00,meteohub,2013-07-15 04:24:00,
2013-07-15 06:40:00,71.2,62.4,30.09,WSW,248,2.0,4.0,73,0.00,,,0.00,meteohub,2013-07-15 04:40:00,
2013-07-15 06:55:00,71.4,61.5,30.09,West,270,2.0,3.0,71,0.00,,,0.00,meteohub,2013-07-15 04:55:00,
2013-07-15 07:10:00,72.0,61.2,30.09,West,270,2.0,4.0,69,0.00,,,0.00,meteohub,2013-07-15 05:10:00,
2013-07-15 07:26:00,72.1,61.5,30.09,West,270,2.0,4.0,69,0.00,,,0.00,meteohub,2013-07-15 05:26:00,
2013-07-15 07:41:00,72.7,61.9,30.10,West,270,3.0,4.0,69,0.00,,,0.00,meteohub,2013-07-15 05:41:00,
2013-07-15 07:56:00,72.9,62.1,30.10,West,270,1.0,2.0,69,0.00,,,0.00,meteohub,2013-07-15 05:56:00,
2013-07-15 08:11:00,74.1,64.6,30.11,WSW,248,4.0,6.0,72,0.00,,,0.00,meteohub,2013-07-15 06:11:00,
2013-07-15 08:27:00,74.5,65.7,30.11,WSW,248,2.0,4.0,74,0.00,,,0.00,meteohub,2013-07-15 06:27:00,
2013-07-15 08:42:00,75.7,64.8,30.11,WSW,248,0.0,3.0,69,0.00,,,0.00,meteohub,2013-07-15 06:42:00,
2013-07-15 08:58:00,77.4,61.9,30.12,WSW,248,1.0,3.0,59,0.00,,,0.00,meteohub,2013-07-15 06:58:00,
2013-07-15 09:13:00,78.4,61.7,30.12,WSW,248,0.0,2.0,56,0.00,,,0.00,meteohub,2013-07-15 07:13:00,
2013-07-15 09:28:00,80.1,64.9,30.12,NE,45,3.0,7.0,60,0.00,,,0.00,meteohub,2013-07-15 07:28:00,
2013-07-15 09:44:00,79.5,63.5,30.12,NE,45,3.0,5.0,58,0.00,,,0.00,meteohub,2013-07-15 07:44:00,
2013-07-15 09:59:00,79.9,62.6,30.13,NE,45,3.0,7.0,55,0.00,,,0.00,meteohub,2013-07-15 07:59:00,
2013-07-15 10:14:00,80.8,62.8,30.13,NNE,23,2.0,5.0,54,0.00,,,0.00,meteohub,2013-07-15 08:14:00,
2013-07-15 10:30:00,81.9,61.9,30.13,SE,135,2.0,3.0,51,0.00,,,0.00,meteohub,2013-07-15 08:30:00,
2013-07-15 10:45:00,82.9,61.9,30.13,SSE,158,0.0,1.0,49,0.00,,,0.00,meteohub,2013-07-15 08:45:00,
2013-07-15 11:01:00,83.8,60.6,30.13,WSW,248,1.0,3.0,45,0.00,,,0.00,meteohub,2013-07-15 09:01:00,
2013-07-15 11:16:00,84.6,59.5,30.13,West,270,2.0,4.0,43,0.00,,,0.00,meteohub,2013-07-15 09:16:00,
2013-07-15 11:31:00,85.5,54.9,30.13,West,270,1.0,6.0,35,0.00,,,0.00,meteohub,2013-07-15 09:31:00,
2013-07-15 11:46:00,86.4,55.2,30.13,SSW,203,3.0,6.0,34,0.00,,,0.00,meteohub,2013-07-15 09:46:00,
2013-07-15 12:02:00,86.7,57.4,30.13,West,270,1.0,7.0,37,0.00,,,0.00,meteohub,2013-07-15 10:02:00,
2013-07-15 12:17:00,86.9,57.0,30.13,West,270,5.0,7.0,36,0.00,,,0.00,meteohub,2013-07-15 10:17:00,
2013-07-15 12:33:00,87.3,57.2,30.13,NNW,338,4.0,7.0,36,0.00,,,0.00,meteohub,2013-07-15 10:33:00,
2013-07-15 12:48:00,87.4,58.3,30.12,WSW,248,4.0,10.0,37,0.00,,,0.00,meteohub,2013-07-15 10:48:00,
2013-07-15 13:03:00,87.6,57.9,30.12,West,270,4.0,9.0,36,0.00,,,0.00,meteohub,2013-07-15 11:03:00,
2013-07-15 13:19:00,88.2,59.2,30.12,SSW,203,6.0,12.0,37,0.00,,,0.00,meteohub,2013-07-15 11:19:00,
2013-07-15 13:34:00,88.5,58.6,30.12,WSW,248,4.0,14.0,36,0.00,,,0.00,meteohub,2013-07-15 11:34:00,
2013-07-15 13:49:00,89.6,59.4,30.12,SSW,203,9.0,13.0,36,0.00,,,0.00,meteohub,2013-07-15 11:49:00,
2013-07-15 14:04:00,89.2,59.2,30.12,SSW,203,8.0,13.0,36,0.00,,,0.00,meteohub,2013-07-15 12:04:00,
2013-07-15 14:38:00,88.2,58.6,30.11,SW,225,7.0,14.0,37,0.00,,,0.00,meteohub,2013-07-15 12:38:00,
2013-07-15 14:53:00,88.7,58.6,30.11,SSE,158,6.0,11.0,36,0.00,,,0.00,meteohub,2013-07-15 12:53:00,
2013-07-15 15:09:00,88.2,57.9,30.11,South,180,6.0,11.0,36,0.00,,,0.00,meteohub,2013-07-15 13:09:00,
2013-07-15 15:24:00,88.5,58.1,30.11,South,180,6.0,10.0,36,0.00,,,0.00,meteohub,2013-07-15 13:24:00,
2013-07-15 15:40:00,88.3,57.2,30.10,South,180,7.0,12.0,35,0.00,,,0.00,meteohub,2013-07-15 13:40:00,
2013-07-15 15:55:00,88.3,57.2,30.10,SSE,158,6.0,11.0,35,0.00,,,0.00,meteohub,2013-07-15 13:55:00,
2013-07-15 16:10:00,89.2,56.8,30.10,SW,225,6.0,11.0,33,0.00,,,0.00,meteohub,2013-07-15 14:10:00,
2013-07-15 16:25:00,88.9,56.5,30.09,SSE,158,6.0,10.0,33,0.00,,,0.00,meteohub,2013-07-15 14:25:00,
2013-07-15 16:40:00,88.9,55.8,30.10,SSW,203,6.0,12.0,32,0.00,,,0.00,meteohub,2013-07-15 14:40:00,
2013-07-15 16:56:00,89.1,55.8,30.09,SSW,203,5.0,9.0,32,0.00,,,0.00,meteohub,2013-07-15 14:56:00,
2013-07-15 17:11:00,88.3,55.2,30.10,South,180,6.0,14.0,32,0.00,,,0.00,meteohub,2013-07-15 15:11:00,
2013-07-15 17:28:00,87.6,55.0,30.10,SSW,203,7.0,13.0,33,0.00,,,0.00,meteohub,2013-07-15 15:28:00,
2013-07-15 17:42:00,87.4,55.2,30.10,SSW,203,6.0,12.0,33,0.00,,,0.00,meteohub,2013-07-15 15:42:00,
2013-07-15 17:58:00,87.3,55.4,30.10,South,180,7.0,15.0,34,0.00,,,0.00,meteohub,2013-07-15 15:58:00,
2013-07-15 18:14:00,87.1,55.8,30.10,SSW,203,6.0,11.0,34,0.00,,,0.00,meteohub,2013-07-15 16:14:00,
2013-07-15 18:29:00,86.2,55.2,30.09,South,180,6.0,14.0,34,0.00,,,0.00,meteohub,2013-07-15 16:29:00,
2013-07-15 18:46:00,86.2,55.4,30.09,SSW,203,4.0,9.0,35,0.00,,,0.00,meteohub,2013-07-15 16:46:00,
2013-07-15 19:02:00,85.8,56.1,30.09,SSW,203,6.0,11.0,36,0.00,,,0.00,meteohub,2013-07-15 17:02:00,
2013-07-15 19:17:00,85.6,56.3,30.09,South,180,4.0,10.0,37,0.00,,,0.00,meteohub,2013-07-15 17:17:00,
2013-07-15 19:31:00,85.5,56.7,30.09,SSW,203,4.0,8.0,37,0.00,,,0.00,meteohub,2013-07-15 17:31:00,
2013-07-15 19:48:00,85.5,57.9,30.09,SSW,203,4.0,7.0,39,0.00,,,0.00,meteohub,2013-07-15 17:48:00,
2013-07-15 20:03:00,84.7,58.1,30.09,SSE,158,3.0,9.0,40,0.00,,,0.00,meteohub,2013-07-15 18:03:00,
2013-07-15 20:17:00,84.6,58.8,30.10,SSW,203,4.0,7.0,42,0.00,,,0.00,meteohub,2013-07-15 18:17:00,
2013-07-15 20:33:00,82.6,62.4,30.10,SSW,203,4.0,9.0,50,0.00,,,0.00,meteohub,2013-07-15 18:33:00,
2013-07-15 20:49:00,81.7,63.9,30.10,SSW,203,3.0,7.0,55,0.00,,,0.00,meteohub,2013-07-15 18:49:00,
2013-07-15 21:04:00,81.0,64.0,30.10,SSW,203,3.0,7.0,56,0.00,,,0.00,meteohub,2013-07-15 19:04:00,
2013-07-15 21:20:00,79.5,66.4,30.11,SW,225,2.0,6.0,64,0.00,,,0.00,meteohub,2013-07-15 19:20:00,
2013-07-15 21:36:00,78.8,66.7,30.11,SW,225,3.0,7.0,66,0.00,,,0.00,meteohub,2013-07-15 19:36:00,
2013-07-15 21:52:00,78.1,66.9,30.12,WSW,248,2.0,5.0,68,0.00,,,0.00,meteohub,2013-07-15 19:52:00,
2013-07-15 22:08:00,77.5,67.1,30.12,West,270,2.0,5.0,70,0.00,,,0.00,meteohub,2013-07-15 20:08:00,
2013-07-15 22:24:00,76.8,67.5,30.13,WSW,248,2.0,5.0,73,0.00,,,0.00,meteohub,2013-07-15 20:24:00,
2013-07-15 22:38:00,76.6,67.6,30.13,WSW,248,3.0,5.0,74,0.00,,,0.00,meteohub,2013-07-15 20:38:00,
2013-07-15 22:54:00,76.3,68.2,30.13,WSW,248,1.0,4.0,76,0.00,,,0.00,meteohub,2013-07-15 20:54:00,
2013-07-15 23:10:00,75.9,68.5,30.13,WSW,248,3.0,5.0,78,0.00,,,0.00,meteohub,2013-07-15 21:10:00,
2013-07-15 23:26:00,75.7,68.7,30.13,WSW,248,2.0,4.0,79,0.00,,,0.00,meteohub,2013-07-15 21:26:00,
2013-07-15 23:41:00,75.6,68.9,30.13,WSW,248,3.0,6.0,80,0.00,,,0.00,meteohub,2013-07-15 21:41:00,
2013-07-15 23:57:00,75.4,68.7,30.13,WSW,248,2.0,4.0,80,0.00,,,0.00,meteohub,2013-07-15 21:57:00,